Regional Weather Roundup
Issued by NWS Newport/Morehead, NC

Current Version | Previous Version | Text Only | Print | Product List | Glossary Off
Versions: 1 2 3 4 5 6 7 8 9 10 11 12 13 14 15 16 17 18 19 20 21 22 23 24 25 26 27 28 29 30 31 32 33 34 35 36 37 38 39 40 41 42 43 44 45 46 47 48 49 50
000 ASUS42 KMHX 022127 RWRMHX WEATHER ROUNDUP FOR EASTERN NORTH CAROLINA NATIONAL WEATHER SERVICE NEWPORT/MOREHEAD CITY NC 400 PM EST MON MAR 02 2015 NOTE: "FAIR" INDICATES FEW OR NO CLOUDS BELOW 12,000 FEET WITH NO SIGNIFICANT WEATHER AND/OR OBSTRUCTIONS TO VISIBILITY NCZ015>017-031-032-045>047-102-103-022200- NORTH COAST CITY SKY/WX TMP DP RH WIND PRES REMARKS EDENTON MOSUNNY 49 39 70 E10 30.28R ELIZABETH CITY MOSUNNY 46 34 62 NE13 30.28R KITTY HAWK CLEAR 40 35 81 N6 30.27R MANTEO SUNNY 43 32 65 N14 30.29R $$ NCZ045>047-081-094-103-104-022200- CENTRAL COAST CITY SKY/WX TMP DP RH WIND PRES REMARKS FRISCO MOSUNNY 44 36 73 N10G20 30.27R SWANQUARTER N/A 48 N/A N/A NE10G22 30.24R $$ NCZ095-097-098-100-101-022200- SOUTHERN COAST CITY SKY/WX TMP DP RH WIND PRES REMARKS BEAUFORT MOSUNNY 52 44 74 NE16G24 30.24R CEDAR ISLAND N/A 45 N/A N/A NE14G21 30.30S JACKSONVILLE MOSUNNY 63 46 54 N7 30.22R PINEY ISLAND N/A N/A N/A N/A MISG 30.25R WILMINGTON SUNNY 63 48 58 CALM 30.21F $$ NCZ011>013-027>030-043-044-078>080-089-090>093-098-022200- COASTAL PLAIN CITY SKY/WX TMP DP RH WIND PRES REMARKS AHOSKIE PTSUNNY 50 38 63 NE8 30.27R CLINTON MOSUNNY 64 46 53 NW9 30.22S ELIZABETHTOWN SUNNY 63 48 57 N5 30.21S GOLDSBORO MOSUNNY 62 47 57 NW10 30.20R GREENVILLE SUNNY 63 41 45 N6 30.24S HAVELOCK MOSUNNY 53 43 68 NE18 30.25R KENANSVILLE MOSUNNY 62 42 47 NW5 30.23S KINSTON MOSUNNY 63 37 39 NW10 30.23R NEW BERN MOSUNNY 61 44 53 NE7 30.23R RICHLANDS MOSUNNY 63 43 48 N8 30.22S ROCKY MOUNT MOSUNNY 59 37 44 N6 30.23R WASHINGTON SUNNY 54 44 68 E13 30.25R WHITEVILLE SUNNY 61 49 65 CALM 30.21S $$ AMZ130-135-150-152-154-156-158-170-250-252-270-ANZ085-086-088-633-658-670-022200- MARINE OBSERVATIONS STATION/POSITION TIME TEMP WIND PRES WAVE SWELL AIR SEA DIR/SP/G HT/PER HT/PER (UTC) (F) (DEG/KT/KT) (MB) (FT/S) (FT/S) CHESAPEAKE LIGHT 2100 38 10/ 11/ 11 1025.9 64 E VA BEACH 2050 44 52 350/ 23/ 27 1023.8 5/ 5 2/ 8 DUCK 2100 37 35 10/ 10/ 11 1024.5 2 E DUCK 2011 35 N/A 2/ 8 10 NE DUCK 2022 37 N/A 3/ 9 OREGON INLET 2100 40 43 350/ 10/ 13 1025.2 HATTERAS CG 2100 42 43 20/ 16/ 18 1025.4 CAPE LOOKOUT 2100 47 50/ 26/ 30 1023.9 BEAUFORT LAB 2100 51 44 50/ 14/ 19 1022.9 27 SE WRIGHTSVLE NOT AVBL 5 SE WRIGHTSVLE NOT AVBL 225 S CAPE HAT 2050 73 74 280/ 14/ 16 1022.2 5/ 9 3/ 9 41 SE CHARLESTON 2050 60 68 250/ 10/ 12 1022.4 4/10 3/10 $$

USA.gov is the U.S. government's official web portal to all federal, state and local government web resources and services.